Year,Month,Day,Hour,Minute,Value (Times are PST for temperature in C)
2017,07,14,00,00,14.40
2017,07,14,00,01,14.40
2017,07,14,00,02,14.40
2017,07,14,00,03,14.40
2017,07,14,00,04,14.40
2017,07,14,00,05,14.40
2017,07,14,00,06,14.40
2017,07,14,00,07,14.40
2017,07,14,00,08,14.40
2017,07,14,00,09,14.40
2017,07,14,00,10,14.40
2017,07,14,00,11,14.40
2017,07,14,00,12,14.40
2017,07,14,00,13,14.40
2017,07,14,00,14,14.40
2017,07,14,00,15,14.40
2017,07,14,00,16,14.40
2017,07,14,00,17,14.40
2017,07,14,00,18,14.40
2017,07,14,00,19,14.40
2017,07,14,00,20,14.40
2017,07,14,00,21,14.40
2017,07,14,00,22,14.40
2017,07,14,00,23,14.30
2017,07,14,00,24,14.30
2017,07,14,00,25,14.30
2017,07,14,00,26,14.30
2017,07,14,00,27,14.30
2017,07,14,00,28,14.30
2017,07,14,00,29,14.30
2017,07,14,00,30,14.30
2017,07,14,00,31,14.30
2017,07,14,00,32,14.30
2017,07,14,00,33,14.30
2017,07,14,00,34,14.30
2017,07,14,00,35,14.30
2017,07,14,00,36,14.30
2017,07,14,00,37,14.30
2017,07,14,00,38,14.40
2017,07,14,00,39,14.30
2017,07,14,00,40,14.30
2017,07,14,00,41,14.30
2017,07,14,00,42,14.30
2017,07,14,00,43,14.30
2017,07,14,00,44,14.30
2017,07,14,00,45,14.30
2017,07,14,00,46,14.30
2017,07,14,00,47,14.30
2017,07,14,00,48,14.20
2017,07,14,00,49,14.20
2017,07,14,00,50,14.20
2017,07,14,00,51,14.20
2017,07,14,00,52,14.20
2017,07,14,00,53,14.20
2017,07,14,00,54,14.20
2017,07,14,00,55,14.10
2017,07,14,00,56,14.10
2017,07,14,00,57,14.10
2017,07,14,00,58,14.00
2017,07,14,00,59,14.00
2017,07,14,01,00,14.10
2017,07,14,01,01,14.10
2017,07,14,01,02,14.10
2017,07,14,01,03,14.10
2017,07,14,01,04,14.10
2017,07,14,01,05,14.10
2017,07,14,01,06,14.10
2017,07,14,01,07,14.10
2017,07,14,01,08,14.10
2017,07,14,01,09,14.10
2017,07,14,01,10,14.10
2017,07,14,01,11,14.00
2017,07,14,01,12,14.00
2017,07,14,01,13,14.00
2017,07,14,01,14,14.00
2017,07,14,01,15,13.90
2017,07,14,01,16,13.90
2017,07,14,01,17,13.90
2017,07,14,01,18,13.90
2017,07,14,01,19,13.90
2017,07,14,01,20,13.80
2017,07,14,01,21,13.80
2017,07,14,01,22,13.80
2017,07,14,01,23,13.70
2017,07,14,01,24,13.70
2017,07,14,01,25,13.60
2017,07,14,01,26,13.60
2017,07,14,01,27,13.60
2017,07,14,01,28,13.50
2017,07,14,01,29,13.50
2017,07,14,01,30,13.50
2017,07,14,01,31,13.40
2017,07,14,01,32,13.40
2017,07,14,01,33,13.30
2017,07,14,01,34,13.30
2017,07,14,01,35,13.20
2017,07,14,01,36,13.20
2017,07,14,01,37,13.10
2017,07,14,01,38,13.10
2017,07,14,01,39,13.00
2017,07,14,01,40,13.00
2017,07,14,01,41,12.90
2017,07,14,01,42,12.90
2017,07,14,01,43,12.90
2017,07,14,01,44,12.90
2017,07,14,01,45,13.00
2017,07,14,01,46,13.00
2017,07,14,01,47,13.00
2017,07,14,01,48,13.00
2017,07,14,01,49,13.00
2017,07,14,01,50,13.10
2017,07,14,01,51,13.10
2017,07,14,01,52,13.10
2017,07,14,01,53,13.10
2017,07,14,01,54,13.10
2017,07,14,01,55,13.00
2017,07,14,01,56,13.00
2017,07,14,01,57,13.00
2017,07,14,01,58,13.10
2017,07,14,01,59,13.10
2017,07,14,02,00,13.10
2017,07,14,02,01,13.10
2017,07,14,02,02,13.10
2017,07,14,02,03,13.10
2017,07,14,02,04,13.10
2017,07,14,02,05,13.10
2017,07,14,02,06,13.10
2017,07,14,02,07,13.10
2017,07,14,02,08,13.10
2017,07,14,02,09,13.20
2017,07,14,02,10,13.20
2017,07,14,02,11,13.20
2017,07,14,02,12,13.20
2017,07,14,02,13,13.20
2017,07,14,02,14,13.20
2017,07,14,02,15,13.20
2017,07,14,02,16,13.10
2017,07,14,02,17,13.10
2017,07,14,02,18,13.10
2017,07,14,02,19,13.10
2017,07,14,02,20,13.20
2017,07,14,02,21,13.20
2017,07,14,02,22,13.20
2017,07,14,02,23,13.20
2017,07,14,02,24,13.20
2017,07,14,02,25,13.30
2017,07,14,02,26,13.30
2017,07,14,02,27,13.30
2017,07,14,02,28,13.40
2017,07,14,02,29,13.40
2017,07,14,02,30,13.40
2017,07,14,02,31,13.50
2017,07,14,02,32,13.50
2017,07,14,02,33,13.60
2017,07,14,02,34,13.60
2017,07,14,02,35,13.60
2017,07,14,02,36,13.60
2017,07,14,02,37,13.60
2017,07,14,02,38,13.60
2017,07,14,02,39,13.60
2017,07,14,02,40,13.60
2017,07,14,02,41,13.60
2017,07,14,02,42,13.60
2017,07,14,02,43,13.50
2017,07,14,02,44,13.50
2017,07,14,02,45,13.60
2017,07,14,02,46,13.60
2017,07,14,02,47,13.60
2017,07,14,02,48,13.60
2017,07,14,02,49,13.60
2017,07,14,02,50,13.60
2017,07,14,02,51,13.60
2017,07,14,02,52,13.60
2017,07,14,02,53,13.60
2017,07,14,02,54,13.60
2017,07,14,02,55,13.60
2017,07,14,02,56,13.60
2017,07,14,02,57,13.60
2017,07,14,02,58,13.60
2017,07,14,02,59,13.60
2017,07,14,03,00,13.60
2017,07,14,03,01,13.60
2017,07,14,03,02,13.70
2017,07,14,03,03,13.70
2017,07,14,03,04,13.70
2017,07,14,03,05,13.70
2017,07,14,03,06,13.70
2017,07,14,03,07,13.70
2017,07,14,03,08,13.80
2017,07,14,03,09,13.80
2017,07,14,03,10,13.80
2017,07,14,03,11,13.80
2017,07,14,03,12,13.80
2017,07,14,03,13,13.80
2017,07,14,03,14,13.70
2017,07,14,03,15,13.70
2017,07,14,03,16,13.70
2017,07,14,03,17,13.70
2017,07,14,03,18,13.70
2017,07,14,03,19,13.70
2017,07,14,03,20,13.70
2017,07,14,03,21,13.70
2017,07,14,03,22,13.70
2017,07,14,03,23,13.70
2017,07,14,03,24,13.70
2017,07,14,03,25,13.70
2017,07,14,03,26,13.70
2017,07,14,03,27,13.70
2017,07,14,03,28,13.70
2017,07,14,03,29,13.70
2017,07,14,03,30,13.70
2017,07,14,03,31,13.60
2017,07,14,03,32,13.60
2017,07,14,03,33,13.60
2017,07,14,03,34,13.60
2017,07,14,03,35,13.60
2017,07,14,03,36,13.60
2017,07,14,03,37,13.60
2017,07,14,03,38,13.60
2017,07,14,03,39,13.60
2017,07,14,03,40,13.60
2017,07,14,03,41,13.60
2017,07,14,03,42,13.70
2017,07,14,03,43,13.70
2017,07,14,03,44,13.60
2017,07,14,03,45,13.60
2017,07,14,03,46,13.60
2017,07,14,03,47,13.70
2017,07,14,03,48,13.70
2017,07,14,03,49,13.70
2017,07,14,03,50,13.70
2017,07,14,03,51,13.70
2017,07,14,03,52,13.70
2017,07,14,03,53,13.80
2017,07,14,03,54,13.80
2017,07,14,03,55,13.80
2017,07,14,03,56,13.80
2017,07,14,03,57,13.80
2017,07,14,03,58,13.80
2017,07,14,03,59,13.80
2017,07,14,04,00,13.80
2017,07,14,04,01,13.80
2017,07,14,04,02,13.80
2017,07,14,04,03,13.80
2017,07,14,04,04,13.80
2017,07,14,04,05,13.80
2017,07,14,04,06,13.80
2017,07,14,04,07,13.80
2017,07,14,04,08,13.80
2017,07,14,04,09,13.80
2017,07,14,04,10,13.80
2017,07,14,04,11,13.80
2017,07,14,04,12,13.80
2017,07,14,04,13,13.80
2017,07,14,04,14,13.80
2017,07,14,04,15,13.80
2017,07,14,04,16,13.70
2017,07,14,04,17,13.70
2017,07,14,04,18,13.70
2017,07,14,04,19,13.70
2017,07,14,04,20,13.60
2017,07,14,04,21,13.60
2017,07,14,04,22,13.60
2017,07,14,04,23,13.60
2017,07,14,04,24,13.60
2017,07,14,04,25,13.70
2017,07,14,04,26,13.60
2017,07,14,04,27,13.60
2017,07,14,04,28,13.60
2017,07,14,04,29,13.60
2017,07,14,04,30,13.60
2017,07,14,04,31,13.60
2017,07,14,04,32,13.60
2017,07,14,04,33,13.60
2017,07,14,04,34,13.60
2017,07,14,04,35,13.60
2017,07,14,04,36,13.60
2017,07,14,04,37,13.60
2017,07,14,04,38,13.60
2017,07,14,04,39,13.50
2017,07,14,04,40,13.50
2017,07,14,04,41,13.50
2017,07,14,04,42,13.60
2017,07,14,04,43,13.60
2017,07,14,04,44,13.60
2017,07,14,04,45,13.60
2017,07,14,04,46,13.70
2017,07,14,04,47,13.70
2017,07,14,04,48,13.70
2017,07,14,04,49,13.70
2017,07,14,04,50,13.60
2017,07,14,04,51,13.60
2017,07,14,04,52,13.60
2017,07,14,04,53,13.50
2017,07,14,04,54,13.50
2017,07,14,04,55,13.40
2017,07,14,04,56,13.40
2017,07,14,04,57,13.40
2017,07,14,04,58,13.40
2017,07,14,04,59,13.30
2017,07,14,05,00,13.30
2017,07,14,05,01,13.30
2017,07,14,05,02,13.20
2017,07,14,05,03,13.10
2017,07,14,05,04,13.10
2017,07,14,05,05,13.10
2017,07,14,05,06,13.00
2017,07,14,05,07,13.00
2017,07,14,05,08,12.90
2017,07,14,05,09,12.90
2017,07,14,05,10,12.90
2017,07,14,05,11,12.90
2017,07,14,05,12,12.90
2017,07,14,05,13,12.90
2017,07,14,05,14,12.90
2017,07,14,05,15,12.90
2017,07,14,05,16,13.00
2017,07,14,05,17,13.00
2017,07,14,05,18,12.90
2017,07,14,05,19,12.90
2017,07,14,05,20,12.90
2017,07,14,05,21,12.90
2017,07,14,05,22,12.80
2017,07,14,05,23,12.80
2017,07,14,05,24,12.70
2017,07,14,05,25,12.60
2017,07,14,05,26,12.60
2017,07,14,05,27,12.60
2017,07,14,05,28,12.60
2017,07,14,05,29,12.70
2017,07,14,05,30,12.70
2017,07,14,05,31,12.70
2017,07,14,05,32,12.70
2017,07,14,05,33,12.70
2017,07,14,05,34,12.70
2017,07,14,05,35,12.70
2017,07,14,05,36,12.70
2017,07,14,05,37,12.70
2017,07,14,05,38,12.70
2017,07,14,05,39,12.70
2017,07,14,05,40,12.70
2017,07,14,05,41,12.70
2017,07,14,05,42,12.70
2017,07,14,05,43,12.70
2017,07,14,05,44,12.70
2017,07,14,05,45,12.70
2017,07,14,05,46,12.70
2017,07,14,05,47,12.70
2017,07,14,05,48,12.70
2017,07,14,05,49,12.70
2017,07,14,05,50,12.80
2017,07,14,05,51,12.80
2017,07,14,05,52,12.80
2017,07,14,05,53,12.80
2017,07,14,05,54,12.80
2017,07,14,05,55,12.80
2017,07,14,05,56,12.80
2017,07,14,05,57,12.90
2017,07,14,05,58,12.90
2017,07,14,05,59,12.90
2017,07,14,06,00,13.00
2017,07,14,06,01,13.00
2017,07,14,06,02,13.00
2017,07,14,06,03,13.00
2017,07,14,06,04,13.10
2017,07,14,06,05,13.10
2017,07,14,06,06,13.10
2017,07,14,06,07,13.10
2017,07,14,06,08,13.10
2017,07,14,06,09,13.10
2017,07,14,06,10,13.10
2017,07,14,06,11,13.10
2017,07,14,06,12,13.10
2017,07,14,06,13,13.10
2017,07,14,06,14,13.10
2017,07,14,06,15,13.10
2017,07,14,06,16,13.20
2017,07,14,06,17,13.20
2017,07,14,06,18,13.20
2017,07,14,06,19,13.20
2017,07,14,06,20,13.20
2017,07,14,06,21,13.20
2017,07,14,06,22,13.20
2017,07,14,06,23,13.30
2017,07,14,06,24,13.30
2017,07,14,06,25,13.30
2017,07,14,06,26,13.30
2017,07,14,06,27,13.30
2017,07,14,06,28,13.40
2017,07,14,06,29,13.40
2017,07,14,06,30,13.50
2017,07,14,06,31,13.50
2017,07,14,06,32,13.60
2017,07,14,06,33,13.60
2017,07,14,06,34,13.70
2017,07,14,06,35,13.70
2017,07,14,06,36,13.70
2017,07,14,06,37,13.80
2017,07,14,06,38,13.80
2017,07,14,06,39,13.90
2017,07,14,06,40,13.90
2017,07,14,06,41,14.00
2017,07,14,06,42,14.00
2017,07,14,06,43,14.10
2017,07,14,06,44,14.20
2017,07,14,06,45,14.20
2017,07,14,06,46,14.20
2017,07,14,06,47,14.20
2017,07,14,06,48,14.30
2017,07,14,06,49,14.30
2017,07,14,06,50,14.30
2017,07,14,06,51,14.20
2017,07,14,06,52,14.20
2017,07,14,06,53,14.20
2017,07,14,06,54,14.20
2017,07,14,06,55,14.20
2017,07,14,06,56,14.20
2017,07,14,06,57,14.20
2017,07,14,06,58,14.20
2017,07,14,06,59,14.20
2017,07,14,07,00,14.20
2017,07,14,07,01,14.20
2017,07,14,07,02,14.20
2017,07,14,07,03,14.20
2017,07,14,07,04,14.20
2017,07,14,07,05,14.30
2017,07,14,07,06,14.30
2017,07,14,07,07,14.40
2017,07,14,07,08,14.40
2017,07,14,07,09,14.40
2017,07,14,07,10,14.50
2017,07,14,07,11,14.60
2017,07,14,07,12,14.60
2017,07,14,07,13,14.70
2017,07,14,07,14,14.70
2017,07,14,07,15,14.80
2017,07,14,07,16,14.80
2017,07,14,07,17,14.80
2017,07,14,07,18,14.80
2017,07,14,07,19,14.90
2017,07,14,07,20,14.90
2017,07,14,07,21,14.90
2017,07,14,07,22,15.00
2017,07,14,07,23,15.00
2017,07,14,07,24,15.00
2017,07,14,07,25,15.10
2017,07,14,07,26,15.10
2017,07,14,07,27,15.10
2017,07,14,07,28,15.10
2017,07,14,07,29,15.10
2017,07,14,07,30,15.20
2017,07,14,07,31,15.20
2017,07,14,07,32,15.20
2017,07,14,07,33,15.20
2017,07,14,07,34,15.30
2017,07,14,07,35,15.30
2017,07,14,07,36,15.30
2017,07,14,07,37,15.30
2017,07,14,07,38,15.30
2017,07,14,07,39,15.30
2017,07,14,07,40,15.30
2017,07,14,07,41,15.30
2017,07,14,07,42,15.40
2017,07,14,07,43,15.40
2017,07,14,07,44,15.40
2017,07,14,07,45,15.40
2017,07,14,07,46,15.40
2017,07,14,07,47,15.40
2017,07,14,07,48,15.40
2017,07,14,07,49,15.40
2017,07,14,07,50,15.40
2017,07,14,07,51,15.40
2017,07,14,07,52,15.40
2017,07,14,07,53,15.40
2017,07,14,07,54,15.40
2017,07,14,07,55,15.40
2017,07,14,07,56,15.40
2017,07,14,07,57,15.40
2017,07,14,07,58,15.40
2017,07,14,07,59,15.50
2017,07,14,08,00,15.50
2017,07,14,08,01,15.50
2017,07,14,08,02,15.60
2017,07,14,08,03,15.70
2017,07,14,08,04,15.70
2017,07,14,08,05,15.80
2017,07,14,08,06,15.90
2017,07,14,08,07,15.90
2017,07,14,08,08,16.00
2017,07,14,08,09,16.10
2017,07,14,08,10,16.10
2017,07,14,08,11,16.20
2017,07,14,08,12,16.20
2017,07,14,08,13,16.30
2017,07,14,08,14,16.40
2017,07,14,08,15,16.40
2017,07,14,08,16,16.50
2017,07,14,08,17,16.60
2017,07,14,08,18,16.60
2017,07,14,08,19,16.70
2017,07,14,08,20,16.80
2017,07,14,08,21,16.80
2017,07,14,08,22,16.90
2017,07,14,08,23,16.90
2017,07,14,08,24,17.00
2017,07,14,08,25,17.00
2017,07,14,08,26,17.00
2017,07,14,08,27,17.10
2017,07,14,08,28,17.10
2017,07,14,08,29,17.10
2017,07,14,08,30,17.10
2017,07,14,08,31,17.10
2017,07,14,08,32,17.20
2017,07,14,08,33,17.30
2017,07,14,08,34,17.30
2017,07,14,08,35,17.40
2017,07,14,08,36,17.40
2017,07,14,08,37,17.40
2017,07,14,08,38,17.50
2017,07,14,08,39,17.50
2017,07,14,08,40,17.50
2017,07,14,08,41,17.50
2017,07,14,08,42,17.40
2017,07,14,08,43,17.40
2017,07,14,08,44,17.40
2017,07,14,08,45,17.40
2017,07,14,08,46,17.40
2017,07,14,08,47,17.40
2017,07,14,08,48,17.30
2017,07,14,08,49,17.30
2017,07,14,08,50,17.30
2017,07,14,08,51,17.30
2017,07,14,08,52,17.40
2017,07,14,08,53,17.40
2017,07,14,08,54,17.60
2017,07,14,08,55,17.70
2017,07,14,08,56,17.80
2017,07,14,08,57,17.90
2017,07,14,08,58,18.00
2017,07,14,08,59,18.10
2017,07,14,09,00,18.10
2017,07,14,09,01,18.10
2017,07,14,09,02,18.00
2017,07,14,09,03,18.00
2017,07,14,09,04,18.10
2017,07,14,09,05,18.20
2017,07,14,09,06,18.20
2017,07,14,09,07,18.30
2017,07,14,09,08,18.40
2017,07,14,09,09,18.50
2017,07,14,09,10,18.50
2017,07,14,09,11,18.60
2017,07,14,09,12,18.70
2017,07,14,09,13,18.70
2017,07,14,09,14,18.80
2017,07,14,09,15,18.80
2017,07,14,09,16,18.80
2017,07,14,09,17,18.70
2017,07,14,09,18,18.70
2017,07,14,09,19,18.70
2017,07,14,09,20,18.70
2017,07,14,09,21,18.80
2017,07,14,09,22,19.00
2017,07,14,09,23,19.10
2017,07,14,09,24,19.10
2017,07,14,09,25,19.20
2017,07,14,09,26,19.10
2017,07,14,09,27,19.00
2017,07,14,09,28,19.00
2017,07,14,09,29,19.00
2017,07,14,09,30,19.00
2017,07,14,09,31,19.00
2017,07,14,09,32,19.00
2017,07,14,09,33,18.90
2017,07,14,09,34,18.80
2017,07,14,09,35,18.70
2017,07,14,09,36,18.60
2017,07,14,09,37,18.60
2017,07,14,09,38,18.50
2017,07,14,09,39,18.50
2017,07,14,09,40,18.50
2017,07,14,09,41,18.50
2017,07,14,09,42,18.50
2017,07,14,09,43,18.60
2017,07,14,09,44,18.60
2017,07,14,09,45,18.70
2017,07,14,09,46,18.70
2017,07,14,09,47,18.70
2017,07,14,09,48,18.70
2017,07,14,09,49,18.70
2017,07,14,09,50,18.70
2017,07,14,09,51,18.70
2017,07,14,09,52,18.70
2017,07,14,09,53,18.70
2017,07,14,09,54,18.70
2017,07,14,09,55,18.60
2017,07,14,09,56,18.60
2017,07,14,09,57,18.60
2017,07,14,09,58,18.60
2017,07,14,09,59,18.60
2017,07,14,10,00,18.60
2017,07,14,10,01,18.70
2017,07,14,10,02,18.70
2017,07,14,10,03,18.80
2017,07,14,10,04,18.80
2017,07,14,10,05,18.70
2017,07,14,10,06,18.70
2017,07,14,10,07,18.70
2017,07,14,10,08,18.70
2017,07,14,10,09,18.70
2017,07,14,10,10,18.70
2017,07,14,10,11,18.70
2017,07,14,10,12,18.70
2017,07,14,10,13,18.70
2017,07,14,10,14,18.80
2017,07,14,10,15,18.80
2017,07,14,10,16,18.80
2017,07,14,10,17,18.80
2017,07,14,10,18,18.80
2017,07,14,10,19,18.80
2017,07,14,10,20,18.80
2017,07,14,10,21,18.80
2017,07,14,10,22,18.70
2017,07,14,10,23,18.60
2017,07,14,10,24,18.70
2017,07,14,10,25,18.70
2017,07,14,10,26,18.70
2017,07,14,10,27,18.70
2017,07,14,10,28,18.70
2017,07,14,10,29,18.70
2017,07,14,10,30,18.60
2017,07,14,10,31,18.60
2017,07,14,10,32,18.60
2017,07,14,10,33,18.60
2017,07,14,10,34,18.70
2017,07,14,10,35,18.70
2017,07,14,10,36,18.70
2017,07,14,10,37,18.60
2017,07,14,10,38,18.60
2017,07,14,10,39,18.60
2017,07,14,10,40,18.60
2017,07,14,10,41,18.60
2017,07,14,10,42,18.60
2017,07,14,10,43,18.60
2017,07,14,10,44,18.50
2017,07,14,10,45,18.50
2017,07,14,10,46,18.50
2017,07,14,10,47,18.50
2017,07,14,10,48,18.50
2017,07,14,10,49,18.50
2017,07,14,10,50,18.60
2017,07,14,10,51,18.60
2017,07,14,10,52,18.70
2017,07,14,10,53,18.70
2017,07,14,10,54,18.70
2017,07,14,10,55,18.60
2017,07,14,10,56,18.50
2017,07,14,10,57,18.40
2017,07,14,10,58,18.30
2017,07,14,10,59,18.30
2017,07,14,11,00,18.20
2017,07,14,11,01,18.20
2017,07,14,11,02,18.30
2017,07,14,11,03,18.30
2017,07,14,11,04,18.40
2017,07,14,11,05,18.50
2017,07,14,11,06,18.60
2017,07,14,11,07,18.70
2017,07,14,11,08,18.80
2017,07,14,11,09,18.80
2017,07,14,11,10,18.80
2017,07,14,11,11,18.80
2017,07,14,11,12,18.90
2017,07,14,11,13,18.90
2017,07,14,11,14,18.90
2017,07,14,11,15,18.90
2017,07,14,11,16,18.90
2017,07,14,11,17,18.90
2017,07,14,11,18,18.90
2017,07,14,11,19,19.00
2017,07,14,11,20,19.00
2017,07,14,11,21,19.10
2017,07,14,11,22,19.10
2017,07,14,11,23,19.20
2017,07,14,11,24,19.20
2017,07,14,11,25,19.20
2017,07,14,11,26,19.20
2017,07,14,11,27,19.20
2017,07,14,11,28,19.20
2017,07,14,11,29,19.20
2017,07,14,11,30,19.10
2017,07,14,11,31,19.10
2017,07,14,11,32,19.10
2017,07,14,11,33,19.10
2017,07,14,11,34,19.00
2017,07,14,11,35,19.00
2017,07,14,11,36,19.10
2017,07,14,11,37,19.20
2017,07,14,11,38,19.20
2017,07,14,11,39,19.20
2017,07,14,11,40,19.10
2017,07,14,11,41,19.10
2017,07,14,11,42,19.10
2017,07,14,11,43,19.10
2017,07,14,11,44,19.10
2017,07,14,11,45,19.10
2017,07,14,11,46,19.10
2017,07,14,11,47,19.00
2017,07,14,11,48,19.00
2017,07,14,11,49,19.00
2017,07,14,11,50,19.00
2017,07,14,11,51,19.00
2017,07,14,11,52,19.10
2017,07,14,11,53,19.10
2017,07,14,11,54,19.10
2017,07,14,11,55,19.10
2017,07,14,11,56,19.10
2017,07,14,11,57,19.10
2017,07,14,11,58,19.20
2017,07,14,11,59,19.30
2017,07,14,12,00,19.40
2017,07,14,12,01,19.40
2017,07,14,12,02,19.50
2017,07,14,12,03,19.50
2017,07,14,12,04,19.40
2017,07,14,12,05,19.50
2017,07,14,12,06,19.50
2017,07,14,12,07,19.40
2017,07,14,12,08,19.50
2017,07,14,12,09,19.60
2017,07,14,12,10,19.60
2017,07,14,12,11,19.60
2017,07,14,12,12,19.60
2017,07,14,12,13,19.60
2017,07,14,12,14,19.70
2017,07,14,12,15,19.80
2017,07,14,12,16,19.80
2017,07,14,12,17,19.70
2017,07,14,12,18,19.70
2017,07,14,12,19,19.70
2017,07,14,12,20,19.70
2017,07,14,12,21,19.70
2017,07,14,12,22,19.60
2017,07,14,12,23,19.50
2017,07,14,12,24,19.50
2017,07,14,12,25,19.60
2017,07,14,12,26,19.60
2017,07,14,12,27,19.70
2017,07,14,12,28,19.70
2017,07,14,12,29,19.70
2017,07,14,12,30,19.70
2017,07,14,12,31,19.70
2017,07,14,12,32,19.70
2017,07,14,12,33,19.60
2017,07,14,12,34,19.60
2017,07,14,12,35,19.70
2017,07,14,12,36,19.80
2017,07,14,12,37,19.70
2017,07,14,12,38,19.70
2017,07,14,12,39,19.80
2017,07,14,12,40,19.80
2017,07,14,12,41,19.80
2017,07,14,12,42,19.80
2017,07,14,12,43,19.80
2017,07,14,12,44,19.80
2017,07,14,12,45,19.90
2017,07,14,12,46,20.00
2017,07,14,12,47,19.90
2017,07,14,12,48,19.80
2017,07,14,12,49,19.70
2017,07,14,12,50,19.80
2017,07,14,12,51,19.80
2017,07,14,12,52,19.90
2017,07,14,12,53,19.90
2017,07,14,12,54,20.00
2017,07,14,12,55,20.00
2017,07,14,12,56,20.10
2017,07,14,12,57,20.10
2017,07,14,12,58,20.20
2017,07,14,12,59,20.20
2017,07,14,13,00,20.20
2017,07,14,13,01,20.20
2017,07,14,13,02,20.20
2017,07,14,13,03,20.20
2017,07,14,13,04,20.20
2017,07,14,13,05,20.30
2017,07,14,13,06,20.30
2017,07,14,13,07,20.40
2017,07,14,13,08,20.40
2017,07,14,13,09,20.40
2017,07,14,13,10,20.50
2017,07,14,13,11,20.50
2017,07,14,13,12,20.50
2017,07,14,13,13,20.60
2017,07,14,13,14,20.70
2017,07,14,13,15,20.70
2017,07,14,13,16,20.60
2017,07,14,13,17,20.50
2017,07,14,13,18,20.40
2017,07,14,13,19,20.30
2017,07,14,13,20,20.20
2017,07,14,13,21,20.30
2017,07,14,13,22,20.30
2017,07,14,13,23,20.30
2017,07,14,13,24,20.30
2017,07,14,13,25,20.30
2017,07,14,13,26,20.40
2017,07,14,13,27,20.40
2017,07,14,13,28,20.40
2017,07,14,13,29,20.50
2017,07,14,13,30,20.50
2017,07,14,13,31,20.40
2017,07,14,13,32,20.40
2017,07,14,13,33,20.40
2017,07,14,13,34,20.40
2017,07,14,13,35,20.40
2017,07,14,13,36,20.40
2017,07,14,13,37,20.40
2017,07,14,13,38,20.30
2017,07,14,13,39,20.40
2017,07,14,13,40,20.40
2017,07,14,13,41,20.40
2017,07,14,13,42,20.40
2017,07,14,13,43,20.40
2017,07,14,13,44,20.40
2017,07,14,13,45,20.40
2017,07,14,13,46,20.30
2017,07,14,13,47,20.30
2017,07,14,13,48,20.20
2017,07,14,13,49,20.20
2017,07,14,13,50,20.20
2017,07,14,13,51,20.20
2017,07,14,13,52,20.30
2017,07,14,13,53,20.30
2017,07,14,13,54,20.30
2017,07,14,13,55,20.30
2017,07,14,13,56,20.40
2017,07,14,13,57,20.50
2017,07,14,13,58,20.50
2017,07,14,13,59,20.50
2017,07,14,14,00,20.50
2017,07,14,14,01,20.40
2017,07,14,14,02,20.30
2017,07,14,14,03,20.30
2017,07,14,14,04,20.40
2017,07,14,14,05,20.40
2017,07,14,14,06,20.40
2017,07,14,14,07,20.40
2017,07,14,14,08,20.40
2017,07,14,14,09,20.40
2017,07,14,14,10,20.40
2017,07,14,14,11,20.40
2017,07,14,14,12,20.50
2017,07,14,14,13,20.50
2017,07,14,14,14,20.60
2017,07,14,14,15,20.70
2017,07,14,14,16,20.70
2017,07,14,14,17,20.80
2017,07,14,14,18,20.90
2017,07,14,14,19,20.90
2017,07,14,14,20,20.90
2017,07,14,14,21,20.90
2017,07,14,14,22,20.90
2017,07,14,14,23,20.90
2017,07,14,14,24,20.80
2017,07,14,14,25,20.80
2017,07,14,14,26,20.70
2017,07,14,14,27,20.70
2017,07,14,14,28,20.70
2017,07,14,14,29,20.70
2017,07,14,14,30,20.80
2017,07,14,14,31,20.80
2017,07,14,14,32,20.80
2017,07,14,14,33,20.90
2017,07,14,14,34,21.00
2017,07,14,14,35,21.00
2017,07,14,14,36,21.20
2017,07,14,14,37,21.20
2017,07,14,14,38,21.00
2017,07,14,14,39,20.90
2017,07,14,14,40,20.80
2017,07,14,14,41,20.90
2017,07,14,14,42,21.00
2017,07,14,14,43,21.00
2017,07,14,14,44,21.10
2017,07,14,14,45,21.10
2017,07,14,14,46,20.90
2017,07,14,14,47,20.90
2017,07,14,14,48,20.90
2017,07,14,14,49,21.00
2017,07,14,14,50,21.00
2017,07,14,14,51,21.10
2017,07,14,14,52,21.10
2017,07,14,14,53,21.00
2017,07,14,14,54,20.80
2017,07,14,14,55,20.80
2017,07,14,14,56,20.80
2017,07,14,14,57,20.90
2017,07,14,14,58,21.00
2017,07,14,14,59,21.10
2017,07,14,15,00,21.10
2017,07,14,15,01,21.10
2017,07,14,15,02,21.10
2017,07,14,15,03,21.20
2017,07,14,15,04,21.20
2017,07,14,15,05,21.20
2017,07,14,15,06,21.20
2017,07,14,15,07,21.30
2017,07,14,15,08,21.30
2017,07,14,15,09,21.30
2017,07,14,15,10,21.40
2017,07,14,15,11,21.40
2017,07,14,15,12,21.30
2017,07,14,15,13,21.40
2017,07,14,15,14,21.40
2017,07,14,15,15,21.40
2017,07,14,15,16,21.40
2017,07,14,15,17,21.40
2017,07,14,15,18,21.40
2017,07,14,15,19,21.30
2017,07,14,15,20,21.30
2017,07,14,15,21,21.30
2017,07,14,15,22,21.30
2017,07,14,15,23,21.30
2017,07,14,15,24,21.30
2017,07,14,15,25,21.30
2017,07,14,15,26,21.30
2017,07,14,15,27,21.30
2017,07,14,15,28,21.40
2017,07,14,15,29,21.40
2017,07,14,15,30,21.40
2017,07,14,15,31,21.40
2017,07,14,15,32,21.40
2017,07,14,15,33,21.40
2017,07,14,15,34,21.40
2017,07,14,15,35,21.30
2017,07,14,15,36,21.20
2017,07,14,15,37,21.20
2017,07,14,15,38,21.20
2017,07,14,15,39,21.30
2017,07,14,15,40,21.40
2017,07,14,15,41,21.40
2017,07,14,15,42,21.40
2017,07,14,15,43,21.40
2017,07,14,15,44,21.40
2017,07,14,15,45,21.50
2017,07,14,15,46,21.60
2017,07,14,15,47,21.60
2017,07,14,15,48,21.70
2017,07,14,15,49,21.70
2017,07,14,15,50,21.70
2017,07,14,15,51,21.90
2017,07,14,15,52,22.10
2017,07,14,15,53,22.20
2017,07,14,15,54,22.30
2017,07,14,15,55,22.40
2017,07,14,15,56,22.50
2017,07,14,15,57,22.60
2017,07,14,15,58,22.60
2017,07,14,15,59,22.60
2017,07,14,16,00,22.50
2017,07,14,16,01,22.40
2017,07,14,16,02,22.40
2017,07,14,16,03,22.40
2017,07,14,16,04,22.40
2017,07,14,16,05,22.40
2017,07,14,16,06,22.30
2017,07,14,16,07,22.30
2017,07,14,16,08,22.30
2017,07,14,16,09,22.30
2017,07,14,16,10,22.30
2017,07,14,16,11,22.30
2017,07,14,16,12,22.30
2017,07,14,16,13,22.40
2017,07,14,16,14,22.40
2017,07,14,16,15,22.40
2017,07,14,16,16,22.40
2017,07,14,16,17,22.40
2017,07,14,16,18,22.50
2017,07,14,16,19,22.60
2017,07,14,16,20,22.70
2017,07,14,16,21,22.70
2017,07,14,16,22,22.60
2017,07,14,16,23,22.50
2017,07,14,16,24,22.40
2017,07,14,16,25,22.40
2017,07,14,16,26,22.40
2017,07,14,16,27,22.30
2017,07,14,16,28,22.20
2017,07,14,16,29,22.00
2017,07,14,16,30,22.00
2017,07,14,16,31,21.90
2017,07,14,16,32,21.90
2017,07,14,16,33,21.90
2017,07,14,16,34,22.00
2017,07,14,16,35,22.10
2017,07,14,16,36,22.20
2017,07,14,16,37,22.30
2017,07,14,16,38,22.40
2017,07,14,16,39,22.50
2017,07,14,16,40,22.60
2017,07,14,16,41,22.70
2017,07,14,16,42,22.70
2017,07,14,16,43,22.70
2017,07,14,16,44,22.70
2017,07,14,16,45,22.70
2017,07,14,16,46,22.70
2017,07,14,16,47,22.70
2017,07,14,16,48,22.60
2017,07,14,16,49,22.40
2017,07,14,16,50,22.20
2017,07,14,16,51,22.10
2017,07,14,16,52,22.00
2017,07,14,16,53,22.00
2017,07,14,16,54,21.90
2017,07,14,16,55,21.90
2017,07,14,16,56,22.00
2017,07,14,16,57,22.00
2017,07,14,16,58,22.00
2017,07,14,16,59,22.10
2017,07,14,17,00,22.10
2017,07,14,17,01,22.10
2017,07,14,17,02,22.00
2017,07,14,17,03,22.00
2017,07,14,17,04,22.00
2017,07,14,17,05,22.00
2017,07,14,17,06,22.10
2017,07,14,17,07,22.20
2017,07,14,17,08,22.20
2017,07,14,17,09,22.30
2017,07,14,17,10,22.40
2017,07,14,17,11,22.50
2017,07,14,17,12,22.60
2017,07,14,17,13,22.60
2017,07,14,17,14,22.60
2017,07,14,17,15,22.60
2017,07,14,17,16,22.60
2017,07,14,17,17,22.60
2017,07,14,17,18,22.60
2017,07,14,17,19,22.70